Location: Nairn
(57.5833°N, 3.8667°W)
Time: 08:51:38
(UTC+00:00)

Vanguard 1 - Pass Details

Date: 30 November 2020
Orbit: 649 x 3834 km, 34.3° (Epoch: 15 January)

Event Time Altitude Azimuth Distance (km) Brightness Sun altitude
Rises 06:37:34 0° 223° (SW) 3,806 12.9 -13.9°
Reaches altitude 10° 06:41:07 10° 201° (SSW) 3,257 12.7 -13.5°
Maximum altitude 06:45:48 16° 166° (SSE) 3,350 13.2 -12.9°
Drops below altitude 10° 06:51:59 10° 134° (SE) 4,551 14.6 -12.1°
Sets 06:58:40 0° 118° (ESE) 6,283 16.4 -11.3°
